Location: ?????
(55.6500°N, 37.2500°E)
Time: 11:10:24
(UTC+00:00)

ATLAS 3B R/B - Pass Details

Date: 19 May 2025
Orbit: 935 x 1258 km, 63.8° (Epoch: 13 June)

Event Time Altitude Azimuth Distance (km) Brightness Sun altitude
Exits shadow 19:42:58 14° 156° (SSE) 2,800 4.2 -11.2°
Maximum altitude 19:47:39 26° 111° (ESE) 2,211 4.0 -11.5°
Drops below altitude 10° 19:53:42 10° 60° (ENE) 3,227 5.3 -11.8°
Sets 19:57:03 0° 48° (NE) 4,215 6.1 -12.0°
